UAL174 PGUM-PGSN

Flight info

Callsign UAL174
Flight time 0h 28m
Altitude 15000
Route BAGBE WILLE
Aircraft B38M/M-SDE1FGHILORVWXY/HB1

Departure

Time 2026-05-05 08:17
Airport Antonio B. Won Pat International Airport (PGUM)

Arrival

Time 2026-05-05 08:46
Airport Saipan International Airport (PGSN)
Time Latitude Longitude Altitude Speed Heading
2026-05-05 08:00 13.49138 144.80465 289 ft 0 kts 332°
2026-05-05 08:06 13.49130 144.80469 303 ft 4 kts 332°
2026-05-05 08:06 13.49106 144.80482 302 ft 4 kts 332°
2026-05-05 08:06 13.49082 144.80495 299 ft 4 kts 327°
2026-05-05 08:07 13.49064 144.80513 302 ft 4 kts 290°
2026-05-05 08:07 13.49065 144.80538 300 ft 4 kts 243°
2026-05-05 08:07 13.49067 144.80542 302 ft 1 kts 240°
2026-05-05 08:11 13.49064 144.80537 301 ft 2 kts 240°
2026-05-05 08:11 13.49050 144.80511 301 ft 6 kts 242°
2026-05-05 08:11 13.49022 144.80460 300 ft 10 kts 234°
2026-05-05 08:11 13.48957 144.80391 299 ft 17 kts 219°
2026-05-05 08:12 13.48881 144.80285 300 ft 20 kts 243°
2026-05-05 08:12 13.48816 144.80144 297 ft 23 kts 244°
2026-05-05 08:12 13.48739 144.79985 295 ft 26 kts 245°
2026-05-05 08:12 13.48663 144.79816 294 ft 27 kts 245°
2026-05-05 08:13 13.48582 144.79641 294 ft 25 kts 245°
2026-05-05 08:13 13.48505 144.79474 294 ft 26 kts 244°
2026-05-05 08:13 13.48428 144.79305 288 ft 27 kts 245°
2026-05-05 08:13 13.48347 144.79126 289 ft 29 kts 245°
2026-05-05 08:14 13.48262 144.78941 289 ft 27 kts 245°
2026-05-05 08:14 13.48180 144.78759 286 ft 29 kts 245°
2026-05-05 08:14 13.48090 144.78565 285 ft 29 kts 245°
2026-05-05 08:14 13.48008 144.78384 283 ft 28 kts 245°
2026-05-05 08:15 13.47932 144.78217 282 ft 19 kts 244°
2026-05-05 08:15 13.47889 144.78137 280 ft 8 kts 225°
2026-05-05 08:15 13.47818 144.78145 269 ft 13 kts 154°
2026-05-05 08:15 13.47801 144.78202 268 ft 9 kts 68°
2026-05-05 08:16 13.47816 144.78233 268 ft 0 kts 63°
2026-05-05 08:16 13.47817 144.78235 268 ft 3 kts 63°
2026-05-05 08:16 13.47894 144.78399 270 ft 57 kts 65°
2026-05-05 08:16 13.48151 144.78958 280 ft 113 kts 66°
2026-05-05 08:17 13.48536 144.79814 421 ft 143 kts 64°
2026-05-05 08:17 13.48949 144.80715 1018 ft 140 kts 68°
2026-05-05 08:17 13.49345 144.81643 1561 ft 146 kts 69°
2026-05-05 08:17 13.49693 144.82666 2100 ft 154 kts 72°
2026-05-05 08:18 13.50048 144.83783 2502 ft 175 kts 71°
2026-05-05 08:18 13.50465 144.85060 2806 ft 202 kts 72°
2026-05-05 08:18 13.50945 144.86515 3273 ft 223 kts 73°
2026-05-05 08:18 13.51457 144.88056 3955 ft 239 kts 73°
2026-05-05 08:19 13.52017 144.89722 4560 ft 253 kts 71°
2026-05-05 08:19 13.52608 144.91456 5355 ft 254 kts 72°
2026-05-05 08:19 13.53177 144.93172 6332 ft 255 kts 72°
2026-05-05 08:19 13.53766 144.94922 7043 ft 262 kts 72°
2026-05-05 08:20 13.54365 144.96699 7842 ft 264 kts 72°
2026-05-05 08:20 13.54964 144.98479 8597 ft 268 kts 72°
2026-05-05 08:20 13.55582 145.00316 9338 ft 275 kts 72°
2026-05-05 08:20 13.56217 145.02201 10008 ft 282 kts 72°
2026-05-05 08:21 13.56867 145.04133 10613 ft 292 kts 72°
2026-05-05 08:21 13.57547 145.06155 10970 ft 309 kts 71°
2026-05-05 08:21 13.58264 145.08288 11449 ft 321 kts 72°
2026-05-05 08:21 13.58996 145.10465 12221 ft 323 kts 72°
2026-05-05 08:22 13.59725 145.12632 12975 ft 328 kts 71°
2026-05-05 08:22 13.60478 145.14875 13643 ft 335 kts 72°
2026-05-05 08:22 13.61241 145.17148 14405 ft 337 kts 71°
2026-05-05 08:22 13.62016 145.19455 14839 ft 342 kts 71°
2026-05-05 08:23 13.62795 145.21778 14957 ft 347 kts 71°
2026-05-05 08:23 13.63602 145.24183 14951 ft 358 kts 71°
2026-05-05 08:23 13.64680 145.26470 14958 ft 364 kts 55°
2026-05-05 08:23 13.66478 145.28325 14957 ft 368 kts 36°
2026-05-05 08:24 13.68772 145.29463 14977 ft 371 kts 17°
2026-05-05 08:24 13.71331 145.29850 14989 ft 374 kts
2026-05-05 08:24 13.73936 145.30026 14963 ft 374 kts
2026-05-05 08:24 13.76542 145.30187 14970 ft 374 kts
2026-05-05 08:25 13.79140 145.30334 14970 ft 374 kts
2026-05-05 08:25 13.81749 145.30474 14976 ft 374 kts
2026-05-05 08:25 13.84352 145.30610 14974 ft 374 kts
2026-05-05 08:25 13.86920 145.30743 14973 ft 374 kts
2026-05-05 08:26 13.89530 145.30879 14971 ft 375 kts
2026-05-05 08:26 13.92129 145.31014 14975 ft 375 kts
2026-05-05 08:26 13.94748 145.31150 14979 ft 375 kts
2026-05-05 08:26 13.97324 145.31284 14977 ft 375 kts
2026-05-05 08:27 13.99933 145.31419 14981 ft 375 kts
2026-05-05 08:27 14.02547 145.31554 14980 ft 375 kts
2026-05-05 08:27 14.05160 145.31691 14986 ft 375 kts
2026-05-05 08:27 14.07771 145.31827 14983 ft 375 kts
2026-05-05 08:28 14.10377 145.31963 14983 ft 375 kts
2026-05-05 08:28 14.12986 145.32099 14985 ft 375 kts
2026-05-05 08:28 14.15590 145.32234 14995 ft 375 kts
2026-05-05 08:28 14.18191 145.32369 14996 ft 376 kts
2026-05-05 08:29 14.20777 145.32504 14996 ft 376 kts
2026-05-05 08:29 14.23395 145.32640 14996 ft 376 kts
2026-05-05 08:29 14.26023 145.32777 14994 ft 376 kts
2026-05-05 08:30 14.31263 145.33050 15005 ft 376 kts
2026-05-05 08:30 14.33834 145.33183 15022 ft 362 kts
2026-05-05 08:30 14.36304 145.33313 14899 ft 351 kts
2026-05-05 08:30 14.38671 145.33436 14769 ft 341 kts
2026-05-05 08:31 14.41036 145.33559 14447 ft 338 kts
2026-05-05 08:31 14.43373 145.33681 14090 ft 336 kts
2026-05-05 08:31 14.45707 145.33803 13758 ft 334 kts
2026-05-05 08:31 14.48025 145.33925 13369 ft 332 kts
2026-05-05 08:32 14.50329 145.34045 12998 ft 330 kts
2026-05-05 08:32 14.52587 145.34163 12657 ft 328 kts
2026-05-05 08:32 14.54860 145.34281 12300 ft 325 kts
2026-05-05 08:32 14.57115 145.34399 11949 ft 323 kts
2026-05-05 08:33 14.59348 145.34515 11616 ft 320 kts
2026-05-05 08:33 14.61574 145.34633 11273 ft 318 kts
2026-05-05 08:33 14.63774 145.34747 10943 ft 316 kts
2026-05-05 08:33 14.65967 145.34862 10613 ft 314 kts
2026-05-05 08:34 14.68105 145.34972 10339 ft 310 kts
2026-05-05 08:34 14.70229 145.35083 10200 ft 300 kts
2026-05-05 08:34 14.72292 145.35191 10062 ft 292 kts
2026-05-05 08:34 14.74311 145.35298 9793 ft 289 kts
2026-05-05 08:35 14.76318 145.35403 9441 ft 288 kts
2026-05-05 08:35 14.78318 145.35508 9114 ft 287 kts
2026-05-05 08:35 14.80311 145.35610 8789 ft 285 kts
2026-05-05 08:35 14.82263 145.35714 8495 ft 283 kts
2026-05-05 08:36 14.84223 145.35816 8195 ft 281 kts
2026-05-05 08:36 14.86177 145.35919 7891 ft 279 kts
2026-05-05 08:36 14.88118 145.36021 7592 ft 278 kts
2026-05-05 08:36 14.90055 145.36123 7286 ft 277 kts
2026-05-05 08:37 14.91968 145.36222 6994 ft 276 kts
2026-05-05 08:37 14.93856 145.36321 6706 ft 274 kts
2026-05-05 08:37 14.95736 145.36540 6380 ft 268 kts 22°
2026-05-05 08:37 14.97288 145.37508 6067 ft 257 kts 50°
2026-05-05 08:38 14.98233 145.39018 5904 ft 244 kts 68°
2026-05-05 08:38 14.98917 145.40589 5808 ft 234 kts 68°
2026-05-05 08:38 14.99577 145.42077 5706 ft 225 kts 68°
2026-05-05 08:38 15.00211 145.43523 5579 ft 216 kts 69°
2026-05-05 08:39 15.00798 145.44927 5460 ft 208 kts 69°
2026-05-05 08:39 15.01349 145.46277 5349 ft 199 kts 70°
2026-05-05 08:39 15.01871 145.47577 5183 ft 193 kts 70°
2026-05-05 08:39 15.02383 145.48860 4916 ft 193 kts 70°
2026-05-05 08:40 15.02890 145.50135 4623 ft 195 kts 70°
2026-05-05 08:40 15.03405 145.51434 4318 ft 195 kts 70°
2026-05-05 08:40 15.03917 145.52728 4031 ft 193 kts 70°
2026-05-05 08:40 15.04423 145.54009 3766 ft 192 kts 70°
2026-05-05 08:41 15.04930 145.55292 3505 ft 192 kts 70°
2026-05-05 08:41 15.05432 145.56564 3245 ft 189 kts 71°
2026-05-05 08:41 15.05922 145.57801 3008 ft 180 kts 71°
2026-05-05 08:41 15.06372 145.58937 2798 ft 161 kts 71°
2026-05-05 08:42 15.06769 145.59940 2590 ft 144 kts 71°
2026-05-05 08:42 15.07121 145.60831 2425 ft 127 kts 71°
2026-05-05 08:42 15.07448 145.61656 2253 ft 122 kts 72°
2026-05-05 08:42 15.07767 145.62470 2082 ft 122 kts 71°
2026-05-05 08:43 15.08092 145.63296 1921 ft 125 kts 71°
2026-05-05 08:43 15.08423 145.64134 1762 ft 126 kts 70°
2026-05-05 08:43 15.08753 145.64973 1583 ft 125 kts 69°
2026-05-05 08:43 15.09062 145.65795 1419 ft 124 kts 70°
2026-05-05 08:44 15.09351 145.66658 1240 ft 127 kts 69°
2026-05-05 08:44 15.09693 145.67507 1133 ft 128 kts 66°
2026-05-05 08:44 15.10097 145.68327 1005 ft 130 kts 66°
2026-05-05 08:44 15.10445 145.69187 826 ft 127 kts 71°
2026-05-05 08:45 15.10751 145.70031 664 ft 124 kts 70°
2026-05-05 08:45 15.11079 145.70859 411 ft 128 kts 66°
2026-05-05 08:45 15.11430 145.71735 271 ft 131 kts 68°
2026-05-05 08:45 15.11760 145.72563 217 ft 113 kts 69°
2026-05-05 08:46 15.11975 145.73103 218 ft 46 kts 67°
2026-05-05 08:46 15.12081 145.73375 220 ft 31 kts 69°
2026-05-05 08:46 15.12182 145.73469 217 ft 20 kts 350°
2026-05-05 08:46 15.12298 145.73406 219 ft 17 kts 291°
2026-05-05 08:47 15.12265 145.73276 219 ft 21 kts 248°
2026-05-05 08:47 15.12209 145.73129 218 ft 23 kts 248°
2026-05-05 08:47 15.12142 145.72962 219 ft 27 kts 247°
2026-05-05 08:47 15.12071 145.72790 213 ft 23 kts 243°
2026-05-05 08:48 15.12041 145.72736 217 ft 2 kts 237°
2026-05-05 08:48 15.12038 145.72712 216 ft 5 kts 276°
2026-05-05 08:48 15.12064 145.72672 217 ft 8 kts 328°
2026-05-05 08:48 15.12111 145.72637 222 ft 9 kts 291°
2026-05-05 08:49 15.12093 145.72567 216 ft 12 kts 244°
2026-05-05 08:49 15.12054 145.72478 217 ft 15 kts 246°
2026-05-05 08:49 15.12081 145.72424 217 ft 10 kts 337°
2026-05-05 08:49 15.12106 145.72413 214 ft 0 kts 337°